Sand Point, AK

10:01 AM AKDT on July 24, 2017 (GMT -0800)
Sand Point

Weather History for PASD - January, 2013

Change the Weather History Date:

Sunday, January 13, 2013

  Actual Average Record
Temperature  
Mean Temperature 40 °F -  
Max Temperature 42 °F 33 °F 44 °F (2015)
Min Temperature 39 °F 27 °F 12 °F (2008)
Degree Days  
Heating Degree Days 24    
Moisture  
Dew Point 39 °F    
Average Humidity 96    
Maximum Humidity 100    
Minimum Humidity 87    
Precipitation  
Precipitation 0.00 in - - ()
Sea Level Pressure  
Sea Level Pressure 29.45 in    
Wind  
Wind Speed 16 mph (SE)    
Max Wind Speed 30 mph    
Max Gust Speed 46 mph    
Visibility 6 miles    
Events      
Averages and records for this station are not official NWS values.
T = Trace of Precipitation, MM = Missing Value Source: NWS Daily Summary

Daily Weather History Graph

Daily Weather History Graph

Search for Another Location

Airport or City:

Trip Planner

Search our weather history database for the weather conditions in past years. The results will help you decide how hot, cold, wet, or windy it might be!

Date:

Astronomy

Jan. 13, 2013 Rise Set
Actual Time 10:00 AM AKST 5:41 PM AKST
Civil Twilight 9:17 AM AKST 6:25 PM AKST
Nautical Twilight 8:30 AM AKST 7:11 PM AKST
Astronomical Twilight 7:46 AM AKST 7:55 PM AKST
Moon 10:33 AM AKST (1/13) 9:11 PM AKST (1/13)
Length of Visible Light 9h 08m
Length of Day
7h 40m
Waxing Crescent, 6% of the Moon is Illuminated
Jan 13
Waxing Crescent
Jan 18
First Quarter
Jan 26
Full
Feb 3
Last Quarter
Feb 9
New

Hourly Weather History & Observations

Time (AKST) Temp. Windchill Dew Point Humidity Pressure Visibility Wind Dir Wind Speed Gust Speed Precip Events Conditions
12:16 AM 42.8 °F 32.5 °F 41.0 °F 93% 29.54 in 7.0 mi South 28.8 mph 46.0 mph N/A   Overcast
12:36 AM 42.8 °F 32.7 °F 39.2 °F 87% 29.55 in 8.0 mi South 27.6 mph 39.1 mph N/A   Overcast
12:56 AM 42.8 °F 32.7 °F 39.2 °F 87% 29.56 in 9.0 mi South 27.6 mph 33.4 mph N/A   Overcast
1:16 AM 42.8 °F 33.5 °F 39.2 °F 87% 29.58 in 7.0 mi South 23.0 mph 31.1 mph N/A   Overcast
1:36 AM 41.0 °F 30.2 °F 39.2 °F 93% 29.60 in 7.0 mi South 27.6 mph 34.5 mph N/A   Overcast
1:56 AM 41.0 °F 30.2 °F 39.2 °F 93% 29.60 in 8.0 mi South 27.6 mph 33.4 mph N/A   Overcast
2:16 AM 41.0 °F 29.8 °F 37.4 °F 87% 29.59 in 10.0 mi South 29.9 mph 35.7 mph N/A   Overcast
2:36 AM 41.0 °F 30.5 °F 37.4 °F 87% 29.59 in 10.0 mi South 26.5 mph 33.4 mph N/A   Overcast
2:56 AM 39.2 °F 28.3 °F 37.4 °F 93% 29.60 in 10.0 mi South 25.3 mph - N/A   Overcast
3:16 AM 39.2 °F 29.8 °F 37.4 °F 93% 29.60 in 10.0 mi South 18.4 mph 25.3 mph N/A   Overcast
3:36 AM 39.2 °F 30.2 °F 37.4 °F 93% 29.61 in 10.0 mi South 17.3 mph 26.5 mph N/A   Overcast
3:56 AM 39.2 °F 30.5 °F 37.4 °F 93% 29.60 in 10.0 mi SSE 16.1 mph - N/A   Overcast
4:16 AM 39.2 °F 30.2 °F 37.4 °F 93% 29.61 in 9.0 mi SSE 17.3 mph - N/A   Overcast
4:36 AM 39.2 °F 30.2 °F 37.4 °F 93% 29.60 in 9.0 mi SSE 17.3 mph 24.2 mph N/A   Overcast
4:56 AM 39.2 °F 30.5 °F 37.4 °F 93% 29.60 in 7.0 mi SSE 16.1 mph 20.7 mph N/A   Overcast
5:16 AM 39.2 °F 31.6 °F 37.4 °F 93% 29.60 in 8.0 mi SSE 12.7 mph - N/A   Overcast
5:36 AM 39.2 °F 33.6 °F 37.4 °F 93% 29.59 in 8.0 mi SSE 8.1 mph - N/A   Overcast
5:56 AM 39.2 °F 35.0 °F 37.4 °F 93% 29.59 in 7.0 mi SE 5.8 mph - N/A   Overcast
6:16 AM 39.2 °F 33.0 °F 37.4 °F 93% 29.59 in 10.0 mi SE 9.2 mph - N/A   Overcast
6:36 AM 39.2 °F 33.0 °F 37.4 °F 93% 29.58 in 10.0 mi SSE 9.2 mph - N/A   Overcast
6:56 AM 39.2 °F 32.5 °F 37.4 °F 93% 29.58 in 10.0 mi SE 10.4 mph - N/A   Overcast
7:16 AM 39.2 °F 35.0 °F 37.4 °F 93% 29.57 in 10.0 mi SSE 5.8 mph - N/A   Overcast
7:36 AM 39.2 °F 37.0 °F 37.4 °F 93% 29.57 in 10.0 mi SE 3.5 mph - N/A   Overcast
7:56 AM 39.2 °F 37.0 °F 37.4 °F 93% 29.58 in 8.0 mi SE 3.5 mph - N/A   Overcast
8:16 AM 39.2 °F 37.0 °F 37.4 °F 93% 29.56 in 8.0 mi SE 3.5 mph - N/A   Overcast
8:36 AM 39.2 °F - 37.4 °F 93% 29.55 in 5.0 mi Calm Calm - N/A   Overcast
8:56 AM 39.2 °F - 37.4 °F 93% 29.55 in 5.0 mi Calm Calm - N/A   Overcast
9:16 AM 39.2 °F - 37.4 °F 93% 29.54 in 5.0 mi Calm Calm - N/A   Overcast
9:36 AM 39.2 °F 37.0 °F 39.2 °F 100% 29.55 in 4.0 mi ESE 3.5 mph - N/A   Overcast
9:56 AM 39.2 °F 37.0 °F 39.2 °F 100% 29.55 in 7.0 mi NE 3.5 mph - N/A   Overcast
10:16 AM 39.2 °F - 39.2 °F 100% 29.53 in 7.0 mi Calm Calm - N/A   Overcast
10:36 AM 39.2 °F 35.0 °F 39.2 °F 100% 29.52 in 5.0 mi NE 5.8 mph - N/A   Overcast
10:56 AM 39.2 °F 35.9 °F 39.2 °F 100% 29.53 in 5.0 mi NE 4.6 mph - N/A   Overcast
11:16 AM 39.2 °F 35.0 °F 39.2 °F 100% 29.52 in 5.0 mi NE 5.8 mph - N/A   Overcast
11:36 AM 39.2 °F 35.0 °F 39.2 °F 100% 29.50 in 3.0 mi NNE 5.8 mph - N/A   Overcast
11:56 AM 39.2 °F 34.2 °F 39.2 °F 100% 29.49 in 3.0 mi NNE 6.9 mph - N/A   Overcast
12:16 PM 39.2 °F 35.0 °F 37.4 °F 93% 29.47 in 3.0 mi NNE 5.8 mph - N/A   Mostly Cloudy
12:36 PM 39.2 °F 37.0 °F 37.4 °F 93% 29.45 in 3.0 mi NNE 3.5 mph - N/A   Overcast
12:56 PM 39.2 °F - 37.4 °F 93% 29.46 in 3.0 mi Calm Calm - N/A   Overcast
1:16 PM 39.2 °F - 37.4 °F 93% 29.46 in 5.0 mi Calm Calm - N/A   Overcast
1:36 PM 39.2 °F 37.0 °F 37.4 °F 93% 29.43 in 5.0 mi North 3.5 mph - N/A   Overcast
1:56 PM 39.2 °F 35.9 °F 39.2 °F 100% 29.41 in 8.0 mi NNE 4.6 mph - N/A   Overcast
2:16 PM 39.2 °F 35.0 °F 39.2 °F 100% 29.42 in 8.0 mi NNE 5.8 mph - N/A   Overcast
2:36 PM 39.2 °F 33.6 °F 39.2 °F 100% 29.39 in 8.0 mi NNE 8.1 mph - N/A   Overcast
2:56 PM 39.2 °F 33.0 °F 39.2 °F 100% 29.36 in 8.0 mi NNE 9.2 mph - N/A   Overcast
3:16 PM 39.2 °F 33.6 °F 39.2 °F 100% 29.36 in 8.0 mi NNE 8.1 mph - N/A   Overcast
3:36 PM 39.2 °F 34.2 °F 39.2 °F 100% 29.36 in 8.0 mi NNE 6.9 mph - N/A   Overcast
3:56 PM 39.2 °F 34.2 °F 39.2 °F 100% 29.35 in 7.0 mi NNE 6.9 mph - N/A   Overcast
4:16 PM 39.2 °F 33.0 °F 39.2 °F 100% 29.32 in 7.0 mi NNE 9.2 mph - N/A   Overcast
4:36 PM 39.2 °F 33.0 °F 39.2 °F 100% 29.33 in 7.0 mi NNE 9.2 mph - N/A   Overcast
4:56 PM 39.2 °F 35.0 °F 39.2 °F 100% 29.32 in 5.0 mi NE 5.8 mph - N/A   Overcast
5:16 PM 39.2 °F 33.0 °F 39.2 °F 100% 29.30 in 2.5 mi NE 9.2 mph - N/A   Overcast
5:36 PM 39.2 °F 34.2 °F 39.2 °F 100% 29.30 in 2.5 mi NNE 6.9 mph - N/A   Overcast
5:56 PM 39.2 °F 33.6 °F 39.2 °F 100% 29.30 in 2.5 mi NNE 8.1 mph - N/A   Overcast
6:16 PM 39.2 °F 35.0 °F 39.2 °F 100% 29.29 in 2.5 mi NNE 5.8 mph - N/A   Overcast
6:36 PM 39.2 °F - 37.4 °F 93% 29.29 in 2.5 mi Calm Calm - N/A   Overcast
6:56 PM 41.0 °F 33.9 °F 41.0 °F 100% 29.31 in 2.0 mi SSE 12.7 mph 18.4 mph N/A   Overcast
7:16 PM 41.0 °F 32.2 °F 41.0 °F 100% 29.29 in 1.8 mi SSE 18.4 mph 25.3 mph N/A   Overcast
7:36 PM 39.2 °F 30.2 °F 39.2 °F 100% 29.28 in 2.0 mi SSE 17.3 mph - N/A   Overcast
7:56 PM 39.2 °F 30.2 °F 39.2 °F 100% 29.28 in 2.5 mi SSE 17.3 mph 23.0 mph N/A   Overcast
8:36 PM 39.2 °F 29.3 °F 39.2 °F 100% 29.30 in 1.8 mi SSE 20.7 mph 26.5 mph N/A   Overcast
8:56 PM 39.2 °F 29.6 °F 39.2 °F 100% 29.30 in 2.0 mi SSE 19.6 mph 29.9 mph N/A   Overcast
9:16 PM 39.2 °F 28.3 °F 37.4 °F 93% 29.30 in 1.8 mi SSE 25.3 mph - N/A   Overcast
9:36 PM 39.2 °F 28.0 °F 37.4 °F 93% 29.29 in 4.0 mi South 26.5 mph 32.2 mph N/A   Overcast
10:16 PM 39.2 °F 29.0 °F 39.2 °F 100% 29.29 in 7.0 mi South 21.9 mph 28.8 mph N/A   Overcast
10:36 PM 39.2 °F 29.6 °F 39.2 °F 100% 29.28 in 8.0 mi SSE 19.6 mph - N/A   Overcast
10:56 PM 39.2 °F 29.3 °F 39.2 °F 100% 29.27 in 4.0 mi South 20.7 mph 33.4 mph N/A   Overcast
11:16 PM 39.2 °F 30.2 °F 39.2 °F 100% 29.25 in 6.0 mi SSE 17.3 mph - N/A   Overcast
11:36 PM 39.2 °F 33.0 °F 39.2 °F 100% 29.25 in 7.0 mi SSE 9.2 mph 18.4 mph N/A   Overcast
11:56 PM 39.2 °F 30.8 °F 39.2 °F 100% 29.26 in 5.0 mi SSE 15.0 mph - N/A   Overcast